Wind_Speed
83 79 72 68 67 69 65 61 60 59 56 54 62 69 76 74 74 69 70 69 66 62 59 62 63 66 69 72 75 76 78 81 83 83 85 85 84 85 86 86 87 88 87 87
82 81 78 74 70 67 67 65 63 60 60 56 57 66 73 75 74 76 73 70 68 68 69 70 73 76 78 80 79 81 84 84 83 85 86 87 88 88 90 91 91 92 95 98
79 85 80 75 71 69 67 68 66 64 63 61 63 63 65 65 74 73 74 76 79 81 82 82 83 85 85 86 86 86 86 87 88 89 89 90 92 92 94 96 97 99 99 100
82 76 79 77 73 71 70 70 69 67 67 68 68 67 69 67 71 72 74 76 77 79 80 83 85 80 79 81 83 85 86 87 88 90 94 95 97 98 99 101 100 100 99 100
83 82 78 77 75 73 69 73 72 70 68 70 73 73 74 74 74 74 75 75 77 79 79 79 81 82 84 86 85 84 87 90 93 97 99 101 103 105 104 102 101 102 102 102
86 84 82 77 76 73 71 74 74 71 69 67 70 73 75 71 70 70 71 71 75 77 80 83 85 84 84 85 88 91 94 97 100 102 103 103 103 103 103 103 104 105 104 102
91 88 86 82 78 74 72 75 74 72 69 68 67 69 69 74 76 77 77 77 76 77 80 83 86 90 92 95 96 97 97 99 100 101 104 104 104 106 105 106 106 106 106 105
78 81 80 77 75 72 72 74 74 70 70 67 67 67 66 70 71 72 74 77 79 82 85 87 89 91 93 95 95 97 99 101 102 104 104 106 106 107 108 108 108 107 106 106
67 68 70 70 70 70 71 72 73 69 69 68 67 67 66 70 70 71 73 75 78 80 82 85 89 91 93 95 98 100 103 105 106 107 108 108 109 110 111 111 110 109 109 108
59 62 63 65 66 67 70 72 70 68 68 69 70 70 68 73 73 73 76 79 81 83 86 89 91 94 97 100 103 106 108 109 110 110 111 112 112 112 112 112 112 111 111 111
50 52 55 57 59 62 65 68 68 68 69 70 72 72 72 75 76 78 81 83 85 88 90 92 96 99 103 105 108 109 110 112 112 114 115 115 115 115 115 115 115 115 116 118
41 44 46 49 53 57 62 65 67 68 68 72 74 75 76 78 80 82 84 87 89 92 95 98 101 104 106 108 109 111 112 114 115 116 117 117 117 118 120 121 123 124 125 126
37 39 41 43 47 52 59 64 67 69 70 74 76 77 78 81 83 86 88 90 93 97 101 103 105 108 108 110 112 114 115 116 118 119 121 122 124 125 127 129 130 130 129 127
35 37 39 40 43 46 52 58 64 69 72 74 77 79 78 83 84 87 91 94 97 100 103 105 106 108 109 111 113 115 117 121 123 126 128 130 131 131 131 129 127 125 122 118
36 38 40 42 44 46 49 52 57 62 67 70 75 77 81 82 86 88 92 96 98 99 101 103 104 107 111 114 119 122 126 126 129 130 128 127 125 124 121 117 112 111 111 110
34 37 40 43 45 47 49 52 55 58 63 67 71 75 80 83 86 88 90 93 96 97 100 104 108 113 117 119 121 122 124 125 124 122 122 119 117 112 111 110 108 105 100 99
30 33 36 39 42 45 48 51 52 56 60 64 68 72 77 80 82 85 88 92 97 101 105 107 108 110 109 113 115 120 120 120 118 115 111 111 110 111 106 96 92 87 85 85
28 31 34 37 39 42 45 49 53 56 60 64 67 72 76 79 83 87 92 95 94 94 95 97 98 103 104 112 117 121 121 122 121 118 115 116 105 97 94 91 83 81 79 77
30 33 35 39 42 44 48 50 53 57 61 64 70 74 79 82 83 81 82 82 85 88 94 96 101 100 106 108 112 118 119 120 117 114 109 99 93 87 83 81 77 72 70 68
33 35 38 41 42 45 47 51 56 61 64 66 66 65 65 67 70 73 77 81 86 89 87 86 90 93 96 96 103 107 101 98 93 91 88 86 84 80 76 71 66 63 61 58
35 39 41 44 46 49 52 52 50 46 43 48 52 58 63 69 75 80 79 83 79 84 86 92 93 90 89 91 92 90 88 86 83 80 78 75 70 65 62 59 56 52 50 47
39 40 41 42 41 34 33 32 34 39 43 50 56 62 65 68 73 78 78 75 80 87 91 94 94 90 88 86 83 81 78 75 72 69 66 63 59 56 53 49 46 44 42 40
27 26 23 23 17 9 11 18 28 34 43 48 52 59 64 68 72 74 76 79 86 92 93 93 91 87 84 79 75 71 68 66 62 58 56 53 51 47 44 40 38 37 34 31
11 12 14 12 15 18 25 31 37 39 45 51 58 63 69 73 78 75 87 91 95 99 97 94 87 83 78 72 68 66 63 59 54 51 49 46 43 39 36 33 31 28 25 23
13 17 14 19 24 24 29 30 32 40 49 60 68 73 75 79 89 93 95 96 100 101 96 89 82 77 70 66 63 60 55 50 47 45 43 39 34 31 29 25 22 20 18 18
17 20 18 15 18 25 29 35 42 50 59 69 75 78 83 90 97 100 102 104 108 102 92 83 77 71 65 61 57 53 47 44 42 39 35 30 27 25 21 16 14 12 14 17
Wind_Direction
223 224 227 230 233 235 234 234 234 236 239 251 258 255 254 254 256 259 262 264 267 270 274 276 276 277 280 281 282 282 283 285 287 288 289 291 293 293 295 294 293 293 292 291
225 223 225 228 231 236 238 236 236 233 236 233 246 252 256 256 256 258 260 260 263 265 266 268 272 276 277 281 282 282 284 286 287 288 290 291 293 292 291 290 289 289 290 291
223 223 225 229 230 234 238 239 237 237 233 232 242 247 254 260 261 260 263 265 266 267 270 272 275 278 280 281 281 282 284 286 287 287 287 288 289 288 287 289 290 290 291 291
222 223 226 228 229 234 238 240 240 238 236 234 238 243 248 254 262 266 268 270 271 273 275 276 279 280 281 283 283 284 285 285 285 286 288 288 288 287 286 287 290 290 290 290
221 224 226 229 232 235 239 239 240 240 239 238 240 245 250 255 261 263 266 269 271 274 276 278 280 281 281 282 283 282 281 282 283 284 285 285 286 288 289 289 289 289 290 290
223 225 228 230 233 236 237 238 239 242 243 243 245 248 251 256 260 263 268 268 269 269 272 275 278 279 278 278 279 280 281 282 284 285 286 287 288 289 290 290 290 290 291 291
224 227 230 232 234 236 236 237 238 241 245 247 249 252 254 255 257 260 263 266 269 270 273 274 274 276 278 280 281 283 285 286 286 287 287 289 289 290 290 290 290 291 291 291
219 223 226 229 232 232 233 235 238 241 246 250 253 256 258 261 263 265 267 268 269 270 272 275 277 279 281 283 285 286 287 287 287 288 289 289 289 289 290 290 291 290 290 291
214 217 221 222 225 229 232 234 238 242 247 252 254 258 262 264 268 270 271 273 274 275 277 279 280 282 285 286 286 287 288 289 290 290 290 290 290 290 291 290 290 291 291 291
210 213 216 220 225 229 232 235 240 243 248 253 257 260 263 267 269 271 273 275 277 279 281 283 284 286 287 287 288 289 290 290 290 290 290 290 290 290 289 289 290 291 291 291
210 214 218 223 228 232 234 237 241 245 249 253 257 261 263 267 270 272 274 277 280 282 283 285 286 287 288 289 290 290 289 289 289 290 290 289 290 290 290 290 290 290 291 292
210 215 222 227 231 234 236 239 244 247 250 255 258 261 265 268 271 274 277 279 281 283 284 286 287 288 288 288 288 288 289 289 289 289 289 289 290 290 290 291 291 292 292 292
213 218 223 229 234 237 239 242 245 249 253 256 260 263 266 270 273 276 278 280 282 283 285 286 286 287 288 288 289 289 289 289 289 289 289 290 290 290 291 291 292 292 292 292
216 221 226 231 236 240 243 246 249 252 255 259 262 266 267 271 274 276 279 281 282 283 285 287 288 289 289 289 289 289 288 289 288 288 289 290 290 291 291 292 292 292 292 292
223 228 232 236 241 245 249 253 255 257 260 262 265 268 272 273 276 279 280 283 284 285 286 287 288 289 289 288 288 288 289 289 289 290 291 291 292 291 292 293 294 294 294 293
227 234 239 243 248 253 257 260 262 264 266 268 271 273 276 278 280 282 283 285 286 287 287 289 289 289 290 290 290 290 289 290 291 292 293 293 293 291 293 293 293 295 293 290
233 239 245 250 254 258 262 266 268 270 272 274 275 277 280 282 284 285 286 287 289 290 291 290 290 291 293 294 293 293 293 293 293 295 296 298 297 297 298 299 296 295 293 289
242 248 253 257 259 261 264 268 271 274 276 278 280 281 282 284 287 288 289 291 292 293 292 294 295 297 296 295 294 294 295 296 297 298 298 300 300 301 299 300 298 294 292 291
249 253 257 260 264 266 271 274 277 279 281 283 284 286 289 289 290 292 293 295 297 297 298 297 295 293 291 291 293 295 295 293 294 296 297 297 300 300 300 298 297 296 295 294
258 261 264 267 271 274 276 278 280 284 286 287 288 289 291 291 294 296 299 296 296 299 296 303 300 297 297 295 293 294 297 296 296 296 299 299 300 300 299 297 297 298 296 296
261 263 266 271 274 277 279 282 284 283 288 290 293 293 296 299 298 297 293 292 303 306 304 306 306 306 302 299 297 299 301 302 301 301 301 301 301 301 300 300 301 299 299 299
265 268 271 274 277 278 280 288 297 294 296 294 296 296 296 294 296 297 303 308 309 313 314 314 314 311 306 304 303 305 304 304 303 304 303 302 302 302 302 301 301 301 302 303
266 268 267 270 282 297 300 300 296 299 295 294 296 297 301 306 308 312 313 318 322 322 319 318 316 312 309 308 308 307 306 305 306 304 302 303 303 303 301 303 303 304 305 307
264 283 277 268 273 275 276 280 287 295 317 325 316 317 322 321 323 322 328 327 326 325 322 320 318 315 313 312 311 309 309 309 306 304 303 304 304 303 305 304 305 308 309 309
278 271 270 264 265 288 290 300 316 324 331 337 336 335 333 330 334 333 331 330 329 326 323 321 319 316 315 314 311 310 313 311 308 306 305 306 306 307 306 307 309 307 308 307
278 275 292 320 313 333 336 344 345 345 339 340 341 340 340 339 335 333 331 332 330 327 324 321 319 316 316 314 313 313 316 312 309 306 306 307 308 307 307 309 304 306 307 310
Height
10719 10730 10744 10751 10758 10762 10774 10781 10786 10791 10798 10801 10800 10802 10800 10809 10808 10812 10814 10814 10813 10812 10812 10808 10806 10804 10801 10798 10794 10790 10784 10780 10775 10770 10765 10761 10756 10751 10746 10740 10735 10730 10726 10720
10708 10722 10729 10736 10746 10755 10762 10769 10775 10783 10786 10792 10791 10790 10788 10794 10797 10799 10802 10802 10801 10799 10798 10795 10793 10792 10788 10785 10780 10774 10770 10765 10759 10754 10749 10744 10739 10733 10728 10722 10717 10712 10706 10701
10693 10702 10720 10730 10738 10743 10751 10756 10764 10771 10775 10781 10781 10782 10782 10782 10786 10789 10789 10788 10787 10786 10784 10783 10780 10778 10774 10769 10763 10758 10753 10748 10742 10736 10731 10725 10721 10715 10709 10703 10697 10690 10685 10679
10680 10699 10707 10718 10727 10733 10738 10746 10752 10759 10765 10768 10769 10772 10772 10773 10776 10776 10777 10776 10774 10772 10769 10767 10764 10760 10756 10752 10746 10741 10735 10729 10723 10717 10711 10705 10699 10694 10689 10682 10676 10669 10663 10656
10674 10682 10697 10707 10717 10723 10731 10733 10740 10747 10754 10758 10759 10763 10760 10763 10764 10765 10765 10764 10762 10759 10755 10752 10747 10744 10740 10734 10729 10722 10716 10710 10705 10698 10691 10684 10677 10670 10664 10658 10652 10645 10640 10635
10664 10674 10685 10698 10705 10711 10719 10724 10730 10737 10743 10750 10750 10750 10751 10754 10752 10753 10752 10751 10748 10745 10740 10737 10732 10727 10721 10715 10709 10703 10696 10690 10684 10677 10669 10661 10653 10646 10640 10634 10627 10620 10614 10608
10653 10666 10676 10686 10695 10703 10710 10715 10721 10728 10732 10737 10740 10740 10743 10740 10741 10741 10739 10737 10734 10730 10724 10719 10713 10707 10701 10695 10688 10681 10675 10668 10661 10654 10645 10638 10630 10621 10616 10609 10601 10595 10588 10581
10644 10655 10667 10678 10687 10694 10701 10707 10712 10720 10722 10727 10728 10730 10732 10728 10728 10727 10726 10722 10718 10713 10707 10700 10694 10688 10681 10674 10668 10661 10653 10645 10638 10630 10622 10614 10607 10598 10590 10582 10574 10567 10560 10553
10636 10651 10660 10670 10678 10687 10694 10700 10704 10711 10714 10717 10717 10718 10720 10715 10714 10713 10709 10705 10700 10695 10690 10684 10677 10670 10663 10655 10647 10639 10630 10621 10613 10604 10595 10587 10579 10572 10563 10554 10547 10540 10532 10525
10635 10645 10656 10665 10673 10681 10686 10691 10698 10703 10706 10706 10705 10706 10709 10701 10700 10697 10692 10687 10683 10678 10672 10666 10659 10651 10643 10634 10625 10615 10605 10596 10586 10576 10568 10559 10552 10543 10536 10528 10519 10511 10504 10497
10636 10646 10654 10663 10670 10676 10682 10686 10690 10693 10694 10695 10693 10693 10693 10688 10685 10681 10677 10672 10668 10662 10655 10648 10640 10631 10621 10612 10601 10590 10579 10569 10560 10549 10539 10531 10522 10513 10506 10498 10490 10482 10475 10466
10637 10645 10653 10659 10665 10670 10674 10678 10681 10682 10686 10681 10681 10679 10677 10675 10672 10668 10663 10656 10650 10645 10638 10629 10620 10610 10600 10588 10577 10564 10553 10542 10533 10521 10511 10502 10494 10484 10474 10465 10457 10449 10442 10434
10636 10643 10649 10654 10659 10663 10666 10669 10671 10672 10672 10669 10667 10667 10667 10661 10657 10651 10647 10642 10634 10626 10616 10605 10595 10586 10575 10563 10552 10540 10528 10518 10505 10494 10484 10475 10464 10454 10444 10434 10424 10414 10406 10397
10633 10639 10644 10649 10652 10656 10658 10660 10661 10661 10660 10660 10654 10653 10655 10647 10643 10637 10630 10622 10614 10603 10594 10585 10574 10563 10551 10538 10524 10512 10501 10487 10479 10465 10454 10443 10433 10422 10411 10401 10391 10380 10371 10363
10630 10634 10639 10642 10645 10647 10650 10651 10651 10651 10650 10648 10643 10640 10635 10633 10626 10618 10610 10602 10594 10583 10574 10561 10550 10537 10524 10510 10495 10484 10471 10461 10446 10433 10423 10412 10400 10388 10378 10369 10360 10348 10339 10330
10626 10630 10633 10636 10638 10640 10641 10641 10642 10640 10637 10636 10632 10626 10618 10614 10608 10601 10593 10583 10571 10562 10550 10537 10524 10509 10495 10480 10466 10451 10439 10425 10412 10402 10391 10379 10368 10357 10348 10340 10329 10318 10309 10299
10622 10625 10628 10629 10632 10632 10632 10633 10631 10628 10625 10622 10617 10611 10604 10596 10590 10580 10571 10559 10550 10537 10525 10511 10496 10481 10466 10450 10435 10418 10405 10392 10380 10370 10357 10345 10335 10326 10315 10304 10294 10285 10277 10268
10617 10620 10621 10623 10624 10624 10623 10621 10619 10616 10613 10608 10603 10595 10587 10580 10571 10563 10550 10538 10528 10514 10499 10485 10470 10455 10438 10422 10404 10389 10375 10360 10347 10334 10323 10312 10302 10293 10284 10275 10266 10258 10250 10242
10612 10613 10614 10614 10613 10614 10612 10611 10608 10603 10598 10594 10585 10579 10571 10561 10550 10546 10527 10517 10505 10491 10478 10463 10447 10431 10413 10395 10376 10360 10344 10328 10316 10305 10296 10286 10276 10268 10260 10251 10241 10234 10226 10220
10604 10605 10604 10603 10605 10604 10603 10599 10595 10589 10583 10577 10571 10561 10554 10542 10531 10525 10515 10502 10489 10474 10457 10440 10421 10401 10384 10365 10349 10333 10315 10303 10292 10282 10271 10261 10252 10246 10237 10228 10221 10214 10207 10202
10596 10595 10595 10595 10595 10593 10590 10586 10581 10576 10570 10562 10555 10546 10538 10528 10516 10506 10493 10482 10467 10451 10432 10412 10392 10370 10353 10336 10319 10305 10292 10280 10268 10257 10248 10240 10232 10225 10216 10209 10204 10198 10192 10188
10586 10587 10586 10585 10584 10583 10579 10576 10572 10565 10559 10551 10543 10533 10525 10514 10502 10488 10474 10458 10443 10425 10403 10382 10361 10341 10324 10310 10296 10282 10269 10259 10248 10239 10230 10221 10214 10208 10202 10196 10191 10185 10181 10177
10578 10579 10578 10577 10575 10573 10569 10566 10558 10553 10546 10539 10529 10519 10510 10498 10484 10470 10454 10438 10420 10398 10375 10354 10336 10318 10301 10288 10276 10262 10251 10241 10232 10223 10214 10206 10200 10195 10189 10185 10180 10176 10172 10168
10573 10573 10572 10570 10567 10565 10561 10555 10549 10542 10536 10525 10514 10505 10491 10478 10463 10448 10431 10411 10392 10370 10349 10329 10311 10295 10280 10268 10255 10244 10235 10227 10217 10208 10200 10194 10189 10184 10180 10175 10172 10169 10165 10162
10569 10568 10567 10565 10561 10557 10551 10546 10538 10531 10522 10511 10500 10488 10475 10459 10440 10422 10405 10387 10367 10346 10326 10305 10289 10275 10263 10251 10240 10229 10221 10211 10201 10195 10188 10184 10180 10175 10172 10169 10166 10164 10161 10159
10565 10564 10561 10558 10554 10548 10542 10533 10526 10517 10508 10497 10486 10472 10456 10438 10421 10403 10382 10363 10343 10323 10303 10285 10270 10258 10246 10235 10225 10216 10208 10199 10191 10184 10179 10176 10172 10169 10167 10165 10163 10160 10158 10157